Red Bluff, CA

3:35 PM PST on November 18, 2019 (GMT -0800)
Red Bluff Municipal

Weather History for KRBL - September, 2019

Change the Weather History Date:

Tuesday, September 3, 2019

  Actual Average Record
Temperature  
Mean Temperature 78 °F -  
Max Temperature 97 °F 96 °F 117 °F (1988)
Min Temperature 60 °F 62 °F 51 °F (1945)
Cooling Degree Days 14    
Growing Degree Days 28 (Base 50)    
Moisture  
Dew Point 48 °F    
Average Humidity 37    
Maximum Humidity 72    
Minimum Humidity 7    
Precipitation  
Precipitation 0.00 in - - ()
Sea Level Pressure  
Sea Level Pressure 29.90 in    
Wind  
Wind Speed 3 mph (SSE)    
Max Wind Speed 10 mph    
Max Gust Speed -    
Visibility 10 miles    
Events      
Averages and records for this station are not official NWS values.
T = Trace of Precipitation, MM = Missing Value Source: NWS Daily Summary

Daily Weather History Graph

Daily Weather History Graph

Search for Another Location

Airport or City:

Astronomy

Sep. 03, 2019 Rise Set
Actual Time 6:38 AM PDT 7:37 PM PDT
Civil Twilight 6:10 AM PDT 8:05 PM PDT
Nautical Twilight 5:37 AM PDT 8:38 PM PDT
Astronomical Twilight 5:03 AM PDT 9:12 PM PDT
Moon 11:37 AM PDT (9/3) 10:37 PM PDT (9/3)
Length of Visible Light 13h 54m
Length of Day
12h 59m
Waxing Crescent, 25% of the Moon is Illuminated
Sep 3
Waxing Crescent
Sep 5
First Quarter
Sep 13
Full
Sep 21
Last Quarter
Sep 28
New

Hourly Weather History & Observations

Time (PDT) Temp. Heat Index Dew Point Humidity Pressure Visibility Wind Dir Wind Speed Gust Speed Precip Events Conditions
12:54 AM 71.1 °F - 55.0 °F 57% 29.89 in 10.0 mi Calm Calm - N/A   Clear
1:54 AM 75.0 °F - 51.1 °F 43% 29.91 in 10.0 mi SW 4.6 mph - N/A   Clear
2:54 AM 73.0 °F - 52.0 °F 48% 29.91 in 10.0 mi SE 5.8 mph - N/A   Clear
3:54 AM 71.1 °F - 52.0 °F 51% 29.92 in 10.0 mi East 3.5 mph - N/A   Clear
4:54 AM 68.0 °F - 52.0 °F 56% 29.92 in 10.0 mi ESE 4.6 mph - N/A   Clear
5:54 AM 63.0 °F - 51.1 °F 65% 29.94 in 10.0 mi Calm Calm - N/A   Clear
6:54 AM 60.1 °F - 51.1 °F 72% 29.96 in 10.0 mi WNW 3.5 mph - N/A   Clear
7:54 AM 66.0 °F - 52.0 °F 60% 29.97 in 10.0 mi Calm Calm - N/A   Clear
8:54 AM 72.0 °F - 53.1 °F 51% 29.98 in 10.0 mi Calm Calm - N/A   Clear
9:54 AM 78.1 °F - 53.1 °F 42% 29.97 in 10.0 mi Variable 3.5 mph - N/A   Clear
10:54 AM 82.9 °F - 52.0 °F 34% 29.96 in 10.0 mi Calm Calm - N/A   Clear
11:54 AM 87.1 °F - 50.0 °F 28% 29.95 in 10.0 mi Calm Calm - N/A   Clear
12:54 PM 91.0 °F - 46.9 °F 22% 29.93 in 10.0 mi Variable 4.6 mph - N/A   Clear
1:54 PM 93.0 °F - 46.9 °F 20% 29.91 in 10.0 mi SE 9.2 mph - N/A   Clear
2:54 PM 95.0 °F - 44.1 °F 17% 29.88 in 10.0 mi SSE 9.2 mph - N/A   Clear
3:54 PM 96.1 °F - 39.9 °F 14% 29.86 in 10.0 mi South 10.4 mph - N/A   Clear
4:54 PM 96.1 °F - 39.0 °F 14% 29.84 in 10.0 mi South 9.2 mph - N/A   Clear
5:54 PM 96.1 °F - 35.1 °F 12% 29.83 in 10.0 mi South 5.8 mph - N/A   Clear
6:54 PM 93.9 °F - 39.9 °F 15% 29.82 in 10.0 mi SSE 4.6 mph - N/A   Clear
7:54 PM 86.0 °F - 45.0 °F 24% 29.83 in 10.0 mi SSE 3.5 mph - N/A   Clear
8:54 PM 81.0 °F 80.5 °F 54.0 °F 39% 29.84 in 10.0 mi SE 4.6 mph - N/A   Clear
9:54 PM 78.1 °F - 52.0 °F 40% 29.85 in 10.0 mi SSW 3.5 mph - N/A   Clear
10:54 PM 71.1 °F - 48.9 °F 45% 29.86 in 10.0 mi Calm Calm - N/A   Clear
11:54 PM 66.9 °F - 46.9 °F 49% 29.87 in 10.0 mi NW 3.5 mph - N/A   Clear